#timestamp,LO_Frequency,Hit,StdDev 
1553727615.3,286046999.1,N
1553727635.1,286046998.7,N
1553727655.9,286046999.6,N
1553727675.7,286046999.1,N
1553727695.5,286047001.1,N
1553727715.4,286047000.8,N
1553727735.2,286047000.8,N
1553727755.0,286047000.5,N
1553727756.0,286047000.5,N
1553727775.8,286047002.4,N
1553727795.6,286047000.5,N
1553727815.5,286047000.9,N
1553727835.3,286046999.1,N
1553727855.1,286046999.3,N
1553727875.9,286046996.8,Y
1553727895.7,286046995.2,P
1553727915.5,286046997.6,N
1553727935.4,286046999.5,N
1553727955.2,286046997.0,N
1553727975.1,286046999.2,N
1553727976.0,286046999.2,N
1553727995.8,286046998.9,N
1553728015.6,286046998.6,N
1553728035.5,286047000.8,N
1553728055.3,286046999.0,N
1553728075.1,286046998.3,N
1553728095.9,286046998.3,N
1553728115.7,286046998.4,N
1553728135.6,286046998.6,N
1553728155.4,286046998.9,N
1553728175.2,286046999.4,N
1553728195.1,286046999.9,N
1553728196.0,286046999.9,N
1553728215.8,286047001.1,N
1553728235.6,286046998.2,N
1553728255.5,286046998.9,N
1553728275.3,286047000.6,N
1553728295.2,286047001.0,N
1553728315.9,286047003.5,N
1553728335.7,286046999.7,N
1553728355.6,286046998.5,N
1553728375.4,286046998.3,N
1553728395.3,286047000.5,N
1553728415.1,286047000.3,N
1553728416.0,286047000.3,N
1553728435.8,286046999.9,N
1553728455.7,286047000.4,N
1553728475.5,286047000.2,N
1553728495.3,286047000.3,N
1553728515.2,286046998.1,N
1553728535.0,286047000.9,N
1553728535.9,286047000.9,N
1553728555.8,286046998.6,N
1553728575.6,286046998.4,N
1553728595.4,286046998.9,N
1553728615.3,286046996.9,N
1553728635.1,286046997.0,N
1553728655.8,286046999.1,N
1553728675.7,286046999.5,N
1553728695.5,286046999.0,N
1553728715.4,286046996.6,N
1553728735.2,286046995.3,Y
1553728755.0,286046997.5,P
1553728755.9,286046997.5,N
1553728775.8,286046999.3,N
1553728795.6,286046998.2,N
1553728815.5,286046998.5,N
1553728835.3,286047001.1,N
1553728855.1,286047001.0,N
1553728875.9,286047001.3,N
1553728895.7,286047004.1,N
1553728915.5,286047003.9,N
1553728935.4,286047002.5,N
1553728955.2,286047002.0,N
1553728975.1,286047000.6,N
1553728976.0,286047000.6,N
1553728995.8,286047001.0,N
1553729015.6,286047001.2,N
1553729035.1,286047000.6,N
1553729055.8,286046999.3,N
1553729075.7,286046998.0,N
1553729095.5,286046997.9,N
1553729115.4,286046997.3,N
1553729135.2,286046999.6,N
1553729155.1,286046998.9,N
1553729156.0,286046998.9,N
1553729175.8,286047002.4,N
1553729195.6,286046999.7,N
1553729215.5,286047000.0,N
1553729235.3,286047000.5,N
1553729255.2,286047002.6,N
1553729275.9,286047002.7,N
1553729295.7,286047002.6,N
1553729315.6,286047002.3,N
1553729335.4,286047002.2,N
1553729355.2,286047000.3,N
1553729375.1,286046999.4,N
1553729376.0,286046999.4,N
1553729395.8,286046998.7,N
1553729415.7,286047000.7,N
1553729435.5,286046999.8,N
1553729455.3,286047002.8,N
1553729475.2,286047003.1,N
1553729495.9,286047003.1,N
1553729515.7,286047004.1,N
1553729535.6,286047001.8,N
1553729555.4,286047000.1,N
1553729575.2,286047000.3,N
1553729595.1,286047000.5,N
1553729596.0,286047000.5,N
1553729615.8,286047002.6,N
1553729635.7,286047004.0,N
1553729655.5,286047006.0,Y
1553729675.3,286047004.0,P
1553729695.2,286047001.4,N
1553729715.0,286047004.4,P
1553729715.9,286047004.4,N
1553729735.7,286047003.7,N
1553729755.6,286047001.3,N
1553729775.4,286047002.4,N
1553729795.3,286047000.3,N
1553729815.1,286047000.6,N
1553729816.0,286047000.6,N
1553729835.8,286047001.2,N
1553729855.7,286047001.0,N
1553729875.5,286047000.7,N
1553729895.3,286047001.2,N
1553729915.2,286047002.7,N
1553729935.5,286047002.1,N
1553729955.4,286047002.3,N
1553729975.2,286047000.0,N
1553729995.0,286047005.6,Y
1553729995.9,286047005.6,P
1553730015.8,286047000.8,N
1553730035.6,286047001.2,N
1553730055.4,286047000.5,N
1553730075.3,286047000.5,N
1553730095.1,286047001.0,N
1553730115.9,286046999.1,N
1553730135.7,286046999.2,N
1553730155.5,286046999.1,N
1553730175.4,286047001.2,N
1553730195.2,286047002.1,N
1553730215.0,286046998.4,N
1553730216.0,286046998.4,N
1553730235.8,286046999.1,N
1553730255.6,286046999.2,N
1553730275.5,286046999.3,N
1553730295.3,286046999.3,N
1553730315.1,286046998.2,N
1553730335.9,286047002.8,N
1553730355.7,286047002.5,N
1553730375.5,286046998.4,N
1553730395.4,286046998.6,N
1553730415.2,286046999.4,N
1553730435.1,286047000.6,N
1553730436.0,286047000.6,N
1553730455.8,286047001.2,N
1553730475.6,286047001.6,N
1553730495.5,286047000.7,N
1553730515.3,286046998.5,N
1553730535.1,286047000.0,N
1553730555.9,286046998.5,N
1553730575.7,286046999.2,N
1553730595.6,286046999.2,N
1553730615.4,286046997.8,N
1553730635.2,286046999.6,N
1553730655.1,286046995.2,Y
1553730656.0,286046995.2,P
1553730675.8,286046997.6,N
1553730695.7,286046997.8,N
1553730715.5,286046996.7,N
1553730735.3,286046998.2,N
1553730755.2,286046999.6,N
1553730775.0,286046997.1,N
1553730775.9,286046997.1,N
1553730795.7,286046999.6,N
1553730815.6,286046999.4,N
1553730835.4,286046999.6,N
1553730855.3,286047000.7,N
1553730875.1,286047000.4,N
1553730876.0,286047000.4,N
1553730895.8,286047002.5,N
1553730915.7,286046998.3,N
1553730935.5,286046996.7,N
1553730955.3,286046997.3,N
1553730975.2,286046996.8,N
1553730995.0,286046996.8,N
1553730995.9,286046996.8,N
1553731015.8,286046998.5,N
1553731035.6,286046999.4,N
1553731055.4,286046998.3,N
1553731075.3,286046999.2,N
1553731095.1,286046999.2,N
1553731115.9,286046998.3,N
1553731135.7,286046998.5,N
1553731155.5,286046999.1,N
1553731175.4,286046997.0,N
1553731195.2,286046997.9,N
